Appleton, MN

9:17 PM CDT on April 29, 2017 (GMT -0500)
Appleton Municipal

Weather History for KAQP - February, 2014

Change the Weather History Date:

Friday, February 28, 2014

  Actual Average Record
Temperature  
Mean Temperature 8 °F -  
Max Temperature 21 °F 25 °F 42 °F (2004)
Min Temperature -5 °F 10 °F -13 °F (2009)
Degree Days  
Heating Degree Days 57    
Moisture  
Dew Point -2 °F    
Average Humidity 68    
Maximum Humidity 77    
Minimum Humidity 58    
Precipitation  
Precipitation 0.00 in - - ()
Sea Level Pressure  
Sea Level Pressure 29.94 in    
Wind  
Wind Speed 13 mph (ENE)    
Max Wind Speed 29 mph    
Max Gust Speed 33 mph    
Visibility 10 miles    
Events      
Averages and records for this station are not official NWS values.
T = Trace of Precipitation, MM = Missing Value Source: NWS Daily Summary

Daily Weather History Graph

Daily Weather History Graph

Search for Another Location

Airport or City:

Trip Planner

Search our weather history database for the weather conditions in past years. The results will help you decide how hot, cold, wet, or windy it might be!

Date:

Astronomy

Feb. 28, 2014 Rise Set
Actual Time 7:03 AM CST 6:09 PM CST
Civil Twilight 6:34 AM CST 6:39 PM CST
Nautical Twilight 6:00 AM CST 7:13 PM CST
Astronomical Twilight 5:25 AM CST 7:47 PM CST
Moon 6:19 AM CST (2/28) 5:49 PM CST (2/28)
Length of Visible Light 12h 05m
Length of Day
11h 06m
Waning Crescent, 1% of the Moon is Illuminated
Feb 28
Waning Crescent
Mar 1
New
Mar 8
First Quarter
Mar 16
Full
Mar 23
Last Quarter

Hourly Weather History & Observations

Time (CST) Temp. Windchill Dew Point Humidity Pressure Visibility Wind Dir Wind Speed Gust Speed Precip Events Conditions
12:13 AM -4.0 °F -22.1 °F -11.2 °F 71% 29.91 in 10.0 mi SE 11.5 mph - N/A   Clear
12:34 AM -4.0 °F -22.1 °F -11.2 °F 71% 29.90 in 10.0 mi SE 11.5 mph - N/A   Clear
12:54 AM -4.0 °F -21.2 °F -11.2 °F 71% 29.90 in 10.0 mi SE 10.4 mph - N/A   Clear
1:13 AM -4.0 °F -21.2 °F -11.2 °F 71% 29.90 in 10.0 mi SE 10.4 mph - N/A   Clear
1:34 AM -4.0 °F -21.2 °F -11.2 °F 71% 29.89 in 10.0 mi SE 10.4 mph - N/A   Clear
1:53 AM -4.0 °F -20.2 °F -11.2 °F 71% 29.89 in 10.0 mi SE 9.2 mph - N/A   Clear
2:13 AM -4.0 °F -22.1 °F -11.2 °F 71% 29.87 in 10.0 mi SE 11.5 mph - N/A   Clear
2:33 AM -4.0 °F -21.2 °F -11.2 °F 71% 29.86 in 10.0 mi SE 10.4 mph - N/A   Clear
2:53 AM -4.0 °F -22.1 °F -11.2 °F 71% 29.85 in 10.0 mi SE 11.5 mph - N/A   Clear
3:13 AM -5.8 °F -22.4 °F -11.2 °F 77% 29.85 in 10.0 mi SE 9.2 mph - N/A   Clear
3:33 AM -4.0 °F -22.1 °F -11.2 °F 71% 29.83 in 10.0 mi SE 11.5 mph - N/A   Clear
3:53 AM -4.0 °F -22.1 °F -11.2 °F 71% 29.82 in 10.0 mi SE 11.5 mph - N/A   Clear
4:14 AM -4.0 °F -23.0 °F -11.2 °F 71% 29.80 in 10.0 mi SE 12.7 mph 17.3 mph N/A   Clear
4:33 AM -2.2 °F -18.9 °F -11.2 °F 66% 29.81 in 10.0 mi SE 10.4 mph - N/A   Mostly Cloudy
4:54 AM -2.2 °F -20.7 °F -11.2 °F 66% 29.79 in 10.0 mi SE 12.7 mph - N/A   Overcast
5:14 AM -0.4 °F -16.7 °F -9.4 °F 66% 29.81 in 10.0 mi SE 10.4 mph - N/A   Overcast
5:34 AM -0.4 °F -17.6 °F -9.4 °F 66% 29.79 in 10.0 mi SE 11.5 mph 17.3 mph N/A   Overcast
5:53 AM -0.4 °F -17.6 °F -7.6 °F 72% 29.79 in 10.0 mi SE 11.5 mph - N/A   Overcast
6:13 AM -0.4 °F -15.7 °F -7.6 °F 72% 29.79 in 10.0 mi SE 9.2 mph 16.1 mph N/A   Scattered Clouds
6:33 AM -0.4 °F -15.7 °F -7.6 °F 72% 29.80 in 10.0 mi SE 9.2 mph - N/A   Mostly Cloudy
6:54 AM -0.4 °F -14.7 °F -7.6 °F 72% 29.80 in 10.0 mi SE 8.1 mph - N/A   Scattered Clouds
7:13 AM 1.4 °F -13.5 °F -7.6 °F 66% 29.80 in 10.0 mi SE 9.2 mph - N/A   Mostly Cloudy
7:34 AM 1.4 °F -12.5 °F -7.6 °F 66% 29.81 in 10.0 mi SE 8.1 mph - N/A   Mostly Cloudy
7:53 AM 1.4 °F -12.5 °F -5.8 °F 72% 29.81 in 10.0 mi SE 8.1 mph - N/A   Mostly Cloudy
8:14 AM 3.2 °F -12.2 °F -5.8 °F 66% 29.82 in 10.0 mi SE 10.4 mph - N/A   Scattered Clouds
8:34 AM 3.2 °F -10.3 °F -5.8 °F 66% 29.81 in 10.0 mi SE 8.1 mph - N/A   Clear
8:54 AM 5.0 °F -6.9 °F -4.0 °F 66% 29.81 in 10.0 mi SE 6.9 mph - N/A   Clear
9:13 AM 6.8 °F -6.9 °F -2.2 °F 67% 29.81 in 10.0 mi SE 9.2 mph - N/A   Clear
9:33 AM 6.8 °F -5.9 °F -2.2 °F 67% 29.81 in 10.0 mi SSE 8.1 mph - N/A   Clear
9:54 AM 8.6 °F -4.7 °F -0.4 °F 67% 29.81 in 10.0 mi South 9.2 mph - N/A   Clear
10:14 AM 10.4 °F -2.4 °F -0.4 °F 62% 29.82 in 10.0 mi SSE 9.2 mph - N/A   Scattered Clouds
10:33 AM 10.4 °F -0.4 °F 1.4 °F 67% 29.82 in 10.0 mi SSE 6.9 mph - N/A   Clear
10:54 AM 12.2 °F 1.7 °F 1.4 °F 62% 29.82 in 10.0 mi South 6.9 mph - N/A   Clear
11:14 AM 14.0 °F 6.5 °F 3.2 °F 62% 29.83 in 10.0 mi South 4.6 mph - N/A   Scattered Clouds
11:34 AM 15.8 °F 7.2 °F 3.2 °F 58% 29.84 in 10.0 mi SSW 5.8 mph - N/A   Overcast
11:53 AM 17.6 °F 10.7 °F 6.8 °F 63% 29.84 in 10.0 mi South 4.6 mph - N/A   Mostly Cloudy
12:13 PM 19.4 °F 14.3 °F 6.8 °F 58% 29.84 in 10.0 mi SW 3.5 mph - N/A   Scattered Clouds
12:34 PM 19.4 °F 8.6 °F 8.6 °F 63% 29.85 in 10.0 mi NW 9.2 mph - N/A   Clear
12:54 PM 21.2 °F 8.3 °F 8.6 °F 58% 29.85 in 10.0 mi NW 13.8 mph - N/A   Clear
1:14 PM 21.2 °F 9.5 °F 8.6 °F 58% 29.86 in 10.0 mi NW 11.5 mph - N/A   Scattered Clouds
1:33 PM 21.2 °F 7.3 °F 10.4 °F 63% 29.87 in 10.0 mi NW 16.1 mph - N/A   Mostly Cloudy
1:54 PM 19.4 °F 4.1 °F 10.4 °F 68% 29.88 in 10.0 mi NNW 18.4 mph - N/A   Overcast
2:14 PM 19.4 °F 3.6 °F 10.4 °F 68% 29.88 in 10.0 mi NNW 19.6 mph - N/A   Overcast
2:34 PM 19.4 °F 4.5 °F 12.2 °F 74% 29.89 in 10.0 mi NNW 17.3 mph 25.3 mph N/A   Overcast
2:54 PM 19.4 °F 3.2 °F 10.4 °F 68% 29.91 in 10.0 mi NW 20.7 mph 25.3 mph N/A   Overcast
3:14 PM 19.4 °F 3.2 °F 10.4 °F 68% 29.92 in 10.0 mi NNW 20.7 mph 24.2 mph N/A   Mostly Cloudy
3:34 PM 19.4 °F 3.2 °F 10.4 °F 68% 29.93 in 10.0 mi NNW 20.7 mph 26.5 mph N/A   Overcast
3:53 PM 17.6 °F 0.1 °F 8.6 °F 68% 29.96 in 7.0 mi NW 23.0 mph 28.8 mph N/A   Mostly Cloudy
4:13 PM 17.6 °F 0.5 °F 10.4 °F 73% 29.98 in 7.0 mi NNW 21.9 mph 25.3 mph N/A   Mostly Cloudy
4:33 PM 15.8 °F -2.7 °F 6.8 °F 68% 29.99 in 10.0 mi NNW 24.2 mph 29.9 mph N/A   Mostly Cloudy
4:54 PM 15.8 °F -3.1 °F 8.6 °F 73% 30.01 in 7.0 mi NNW 25.3 mph 32.2 mph N/A   Mostly Cloudy
5:14 PM 15.8 °F -1.9 °F 6.8 °F 68% 30.02 in 4.0 mi NNW 21.9 mph - N/A   Haze
5:34 PM 12.2 °F -7.5 °F 5.0 °F 73% 30.03 in 10.0 mi NNW 24.2 mph - N/A   Mostly Cloudy
5:54 PM 12.2 °F -7.9 °F 3.2 °F 67% 30.06 in 10.0 mi NNW 25.3 mph - N/A   Scattered Clouds
6:14 PM 10.4 °F -9.1 °F 1.4 °F 67% 30.08 in 10.0 mi NNW 21.9 mph 31.1 mph N/A   Scattered Clouds
6:34 PM 8.6 °F -10.0 °F 1.4 °F 73% 30.10 in 10.0 mi NNW 18.4 mph 24.2 mph N/A   Clear
6:54 PM 8.6 °F -11.4 °F -0.4 °F 67% 30.10 in 10.0 mi North 21.9 mph 27.6 mph N/A   Scattered Clouds
7:14 PM 8.6 °F -10.0 °F -0.4 °F 67% 30.11 in 10.0 mi North 18.4 mph - N/A   Overcast
7:34 PM 6.8 °F -15.9 °F -2.2 °F 67% 30.12 in 10.0 mi North 27.6 mph - N/A   Mostly Cloudy
7:53 PM 5.0 °F -16.2 °F -4.0 °F 66% 30.13 in 10.0 mi North 21.9 mph 31.1 mph N/A   Scattered Clouds
8:13 PM 3.2 °F -18.1 °F -5.8 °F 66% 30.14 in 10.0 mi North 20.7 mph 31.1 mph N/A   Scattered Clouds
8:34 PM 3.2 °F -19.9 °F -5.8 °F 66% 30.15 in 10.0 mi North 25.3 mph 32.2 mph N/A   Scattered Clouds
8:54 PM 3.2 °F -19.9 °F -5.8 °F 66% 30.18 in 10.0 mi NNW 25.3 mph 33.4 mph N/A   Overcast
9:13 PM 1.4 °F -21.9 °F -5.8 °F 72% 30.19 in 10.0 mi NNW 24.2 mph 32.2 mph N/A   Mostly Cloudy
9:34 PM 1.4 °F -22.3 °F -7.6 °F 66% 30.21 in 10.0 mi NNW 25.3 mph 33.4 mph N/A   Scattered Clouds
9:54 PM 1.4 °F -21.9 °F -7.6 °F 66% 30.23 in 10.0 mi NNW 24.2 mph 32.2 mph N/A   Clear
10:13 PM 1.4 °F -21.9 °F -7.6 °F 66% 30.25 in 10.0 mi NNW 24.2 mph - N/A   Clear
10:34 PM 1.4 °F -21.9 °F -7.6 °F 66% 30.25 in 10.0 mi NNW 24.2 mph 32.2 mph N/A   Clear
10:53 PM -0.4 °F -25.2 °F -7.6 °F 72% 30.26 in 10.0 mi NNW 26.5 mph 31.1 mph N/A   Clear
11:13 PM -0.4 °F -26.0 °F -7.6 °F 72% 30.27 in 10.0 mi NNW 28.8 mph 32.2 mph N/A   Clear
11:34 PM -0.4 °F -24.3 °F -9.4 °F 66% 30.27 in 10.0 mi North 24.2 mph - N/A   Clear
11:54 PM -0.4 °F -22.3 °F -9.4 °F 66% 30.28 in 10.0 mi NNW 19.6 mph - N/A   Clear